| time (UTC) | temp F | wind direction | speed knots | gust knots | rain 1hr in | rain 24hr in | rain mn in | humidity % | barometer mb |
| 20260507111115 | 50 | 45 | 0.9 | 1.7 | 0.00 | 0.26 | 0.02 | 50 | 1012.0 |
| 20260507110116 | 50 | 315 | 1.7 | 6.1 | 0.00 | 0.26 | 0.02 | 51 | 1011.9 |
| 20260507105136 | 50 | 293 | 1.7 | 2.6 | 0.00 | 0.26 | 0.02 | 56 | 1011.8 |
| 20260507104116 | 49 | 0.0 | 1.7 | 0.00 | 0.26 | 0.02 | 70 | 1011.7 | |
| 20260507103115 | 49 | 0.0 | 0.9 | 0.00 | 0.26 | 0.02 | 70 | 1011.4 | |
| 20260507102135 | 49 | 0.0 | 0.0 | 0.00 | 0.26 | 0.02 | 69 | 1011.3 | |
| 20260507101136 | 48 | 0.0 | 0.0 | 0.00 | 0.26 | 0.02 | 69 | 1011.2 | |
| 20260507100115 | 48 | 0.0 | 0.0 | 0.00 | 0.26 | 0.02 | 68 | 1011.1 | |
| 20260507095115 | 48 | 0.0 | 0.0 | 0.00 | 0.26 | 0.02 | 72 | 1011.2 | |
| 20260507094115 | 49 | 0.0 | 0.0 | 0.00 | 0.26 | 0.02 | 71 | 1011.2 | |
| 20260507093115 | 49 | 0.0 | 0.0 | 0.00 | 0.26 | 0.02 | 66 | 1011.1 | |
| 20260507092115 | 50 | 0.0 | 0.0 | 0.00 | 0.26 | 0.02 | 59 | 1011.0 | |
| 20260507091115 | 50 | 0.0 | 0.0 | 0.00 | 0.26 | 0.02 | 59 | 1010.8 | |
| 20260507090116 | 51 | 0.0 | 0.9 | 0.00 | 0.26 | 0.02 | 60 | 1010.7 | |
| 20260507085116 | 51 | 0.0 | 0.0 | 0.00 | 0.26 | 0.02 | 60 | 1010.8 | |
| 20260507084115 | 51 | 0.0 | 0.9 | 0.00 | 0.26 | 0.02 | 61 | 1010.7 | |
| 20260507083115 | 51 | 0.0 | 0.9 | 0.00 | 0.26 | 0.02 | 61 | 1010.7 | |
| 20260507082115 | 51 | 293 | 0.9 | 0.9 | 0.00 | 0.26 | 0.02 | 60 | 1010.6 |
| 20260507081115 | 51 | 248 | 0.9 | 1.7 | 0.00 | 0.26 | 0.02 | 61 | 1010.7 |
| 20260507080136 | 51 | 315 | 0.9 | 1.7 | 0.00 | 0.26 | 0.02 | 64 | 1010.7 |
| 20260507075116 | 51 | 293 | 0.9 | 1.7 | 0.00 | 0.26 | 0.02 | 65 | 1010.7 |
| 20260507074116 | 52 | 0.0 | 0.9 | 0.00 | 0.26 | 0.02 | 65 | 1010.6 | |
| 20260507073136 | 52 | 293 | 0.9 | 1.7 | 0.00 | 0.26 | 0.02 | 68 | 1010.7 |
| 20260507072136 | 52 | 0.0 | 0.0 | 0.00 | 0.26 | 0.02 | 70 | 1010.7 | |
| 20260507071136 | 52 | 0.0 | 0.0 | 0.00 | 0.26 | 0.02 | 70 | 1010.9 | |
| 20260507070116 | 52 | 0.0 | 0.0 | 0.00 | 0.26 | 0.02 | 71 | 1010.8 | |
| 20260507065116 | 52 | 135 | 0.9 | 0.9 | 0.00 | 0.26 | 0.02 | 73 | 1010.8 |
| 20260507064116 | 53 | 0.0 | 1.7 | 0.00 | 0.26 | 0.02 | 73 | 1010.9 | |
| 20260507063116 | 53 | 0.0 | 0.9 | 0.00 | 0.26 | 0.02 | 74 | 1010.7 | |
| 20260507062116 | 53 | 315 | 0.9 | 1.7 | 0.00 | 0.26 | 0.02 | 76 | 1010.8 |
| 20260507061116 | 53 | 0.0 | 0.9 | 0.00 | 0.26 | 0.02 | 76 | 1010.8 | |
| 20260507060116 | 53 | 0.0 | 0.0 | 0.00 | 0.26 | 0.02 | 76 | 1010.7 | |
| 20260507055115 | 53 | 293 | 0.9 | 0.9 | 0.00 | 0.26 | 0.02 | 76 | 1010.5 |
| 20260507054136 | 53 | 0.0 | 0.0 | 0.00 | 0.26 | 0.02 | 77 | 1010.5 | |
| 20260507053116 | 53 | 315 | 0.9 | 1.7 | 0.00 | 0.26 | 0.02 | 78 | 1010.6 |
| 20260507052136 | 53 | 0.0 | 0.0 | 0.00 | 0.26 | 0.02 | 80 | 1010.5 | |
| 20260507051116 | 53 | 0.0 | 0.0 | 0.00 | 0.26 | 0.02 | 80 | 1010.3 | |
| 20260507050116 | 53 | 0.0 | 0.0 | 0.02 | 0.26 | 0.02 | 82 | 1010.7 | |
| 20260507045115 | 53 | 0.0 | 0.0 | 0.02 | 0.26 | 0.02 | 82 | 1010.4 | |
| 20260507044116 | 53 | 0.0 | 0.0 | 0.02 | 0.26 | 0.02 | 80 | 1010.3 | |
| 20260507043116 | 54 | 315 | 0.9 | 1.7 | 0.02 | 0.26 | 0.02 | 79 | 1010.7 |
| 20260507042116 | 54 | 0.0 | 0.9 | 0.02 | 0.26 | 0.02 | 78 | 1010.6 | |
| 20260507041116 | 55 | 315 | 0.9 | 1.7 | 0.02 | 0.26 | 0.02 | 75 | 1010.6 |
| 20260507040116 | 55 | 0.0 | 0.0 | 0.00 | 0.24 | 0.00 | 73 | 1010.5 | |
| 20260507035136 | 55 | 315 | 0.9 | 1.7 | 0.00 | 0.24 | 0.24 | 73 | 1010.5 |
| 20260507034115 | 56 | 293 | 1.7 | 2.6 | 0.00 | 0.24 | 0.24 | 72 | 1010.4 |
| 20260507033115 | 56 | 293 | 2.6 | 3.5 | 0.00 | 0.24 | 0.24 | 72 | 1010.5 |
| 20260507032115 | 56 | 248 | 0.9 | 1.7 | 0.00 | 0.24 | 0.24 | 73 | 1010.6 |
| 20260507031115 | 56 | 293 | 1.7 | 3.5 | 0.00 | 0.24 | 0.24 | 73 | 1010.6 |
| 20260507030116 | 56 | 293 | 0.9 | 1.7 | 0.00 | 0.24 | 0.24 | 74 | 1010.1 |
| 20260507025116 | 56 | 248 | 0.9 | 2.6 | 0.00 | 0.24 | 0.24 | 74 | 1010.4 |
| 20260507024116 | 57 | 293 | 2.6 | 3.5 | 0.00 | 0.24 | 0.24 | 74 | 1010.2 |
| 20260507023115 | 57 | 270 | 0.9 | 1.7 | 0.00 | 0.24 | 0.24 | 74 | 1010.1 |
| 20260507022116 | 57 | 315 | 0.9 | 1.7 | 0.00 | 0.24 | 0.24 | 75 | 1010.4 |
| 20260507021116 | 57 | 315 | 2.6 | 3.5 | 0.00 | 0.24 | 0.24 | 75 | 1010.0 |
| 20260507020116 | 58 | 248 | 2.6 | 5.2 | 0.00 | 0.24 | 0.24 | 76 | 1010.0 |
| 20260507015115 | 58 | 293 | 0.9 | 1.7 | 0.00 | 0.24 | 0.24 | 76 | 1010.2 |
| 20260507014136 | 58 | 270 | 0.9 | 1.7 | 0.00 | 0.24 | 0.24 | 76 | 1010.2 |
| 20260507013115 | 59 | 315 | 2.6 | 3.5 | 0.00 | 0.24 | 0.24 | 75 | 1009.8 |
| 20260507012135 | 59 | 293 | 2.6 | 3.5 | 0.00 | 0.24 | 0.24 | 75 | 1010.0 |
| 20260507010116 | 60 | 293 | 0.9 | 0.9 | 0.00 | 0.24 | 0.24 | 74 | 1010.0 |
| 20260507005115 | 60 | 293 | 1.7 | 3.5 | 0.00 | 0.24 | 0.24 | 73 | 1009.6 |
| 20260507004156 | 60 | 293 | 3.5 | 4.3 | 0.00 | 0.24 | 0.24 | 73 | 1009.6 |
| 20260507003116 | 61 | 293 | 2.6 | 4.3 | 0.00 | 0.24 | 0.24 | 73 | 1009.5 |
| 20260507002116 | 61 | 248 | 1.7 | 2.6 | 0.00 | 0.24 | 0.24 | 72 | 1009.3 |
| 20260507001116 | 62 | 270 | 1.7 | 2.6 | 0.00 | 0.24 | 0.24 | 73 | 1009.2 |
| 20260507000116 | 62 | 293 | 1.7 | 4.3 | 0.00 | 0.24 | 0.24 | 73 | 1008.8 |
| 20260506235116 | 62 | 293 | 2.6 | 3.5 | 0.00 | 0.24 | 0.24 | 72 | 1008.5 |
| 20260506234115 | 62 | 293 | 2.6 | 3.5 | 0.00 | 0.24 | 0.24 | 72 | 1008.1 |
| 20260506233115 | 63 | 293 | 6.1 | 7.8 | 0.00 | 0.24 | 0.24 | 72 | 1008.1 |
| 20260506232136 | 63 | 293 | 1.7 | 5.2 | 0.00 | 0.24 | 0.24 | 75 | 1008.0 |
| 20260506231115 | 63 | 293 | 2.6 | 5.2 | 0.00 | 0.24 | 0.24 | 74 | 1007.9 |
| 20260506230116 | 64 | 315 | 3.5 | 6.1 | 0.00 | 0.24 | 0.24 | 74 | 1007.9 |
| 20260506225115 | 64 | 338 | 2.6 | 3.5 | 0.00 | 0.24 | 0.24 | 74 | 1007.9 |
| 20260506224116 | 65 | 293 | 4.3 | 5.2 | 0.00 | 0.24 | 0.24 | 73 | 1007.8 |
| 20260506223116 | 65 | 293 | 3.5 | 5.2 | 0.00 | 0.24 | 0.24 | 76 | 1007.6 |
| 20260506222116 | 65 | 270 | 3.5 | 4.3 | 0.00 | 0.24 | 0.24 | 79 | 1007.3 |
| 20260506221116 | 65 | 248 | 1.7 | 1.7 | 0.00 | 0.24 | 0.24 | 81 | 1007.3 |
| 20260506220116 | 65 | 248 | 0.9 | 2.6 | 0.00 | 0.24 | 0.24 | 82 | 1007.2 |
| 20260506215115 | 65 | 248 | 2.6 | 3.5 | 0.00 | 0.24 | 0.24 | 82 | 1007.1 |
| 20260506214116 | 66 | 248 | 2.6 | 3.5 | 0.00 | 0.24 | 0.24 | 81 | 1007.2 |
| 20260506213116 | 66 | 248 | 2.6 | 3.5 | 0.00 | 0.24 | 0.24 | 79 | 1006.9 |
| 20260506212116 | 67 | 248 | 1.7 | 3.5 | 0.00 | 0.24 | 0.24 | 77 | 1006.6 |
| 20260506211115 | 67 | 0.0 | 0.0 | 0.00 | 0.24 | 0.24 | 78 | 1006.5 | |
| 20260506210135 | 67 | 248 | 2.6 | 3.5 | 0.00 | 0.24 | 0.24 | 76 | 1006.3 |
| 20260506205116 | 67 | 248 | 2.6 | 2.6 | 0.00 | 0.24 | 0.24 | 76 | 1006.4 |
| 20260506204116 | 68 | 248 | 1.7 | 2.6 | 0.00 | 0.24 | 0.24 | 77 | 1006.3 |
| 20260506203115 | 68 | 293 | 1.7 | 1.7 | 0.00 | 0.24 | 0.24 | 77 | 1006.2 |
| 20260506202116 | 68 | 248 | 1.7 | 2.6 | 0.00 | 0.24 | 0.24 | 76 | 1006.3 |
| 20260506201156 | 69 | 248 | 2.6 | 4.3 | 0.00 | 0.24 | 0.24 | 74 | 1006.2 |
| 20260506200116 | 69 | 293 | 1.7 | 5.2 | 0.00 | 0.24 | 0.24 | 76 | 1006.2 |
| 20260506195116 | 69 | 248 | 1.7 | 2.6 | 0.00 | 0.24 | 0.24 | 76 | 1006.2 |
| 20260506194116 | 68 | 248 | 1.7 | 2.6 | 0.00 | 0.24 | 0.24 | 79 | 1006.4 |
| 20260506193116 | 67 | 270 | 1.7 | 3.5 | 0.00 | 0.24 | 0.24 | 80 | 1006.3 |
| 20260506192136 | 66 | 270 | 2.6 | 2.6 | 0.00 | 0.24 | 0.24 | 81 | 1006.5 |
| 20260506191115 | 66 | 203 | 1.7 | 4.3 | 0.00 | 0.24 | 0.24 | 82 | 1006.5 |
| 20260506190116 | 66 | 0.0 | 0.9 | 0.00 | 0.24 | 0.24 | 82 | 1006.6 | |
| 20260506185116 | 66 | 180 | 0.9 | 3.5 | 0.00 | 0.24 | 0.24 | 82 | 1006.7 |
| 20260506184116 | 66 | 0.0 | 0.0 | 0.00 | 0.24 | 0.24 | 82 | 1006.7 | |
| 20260506183115 | 66 | 0.0 | 0.0 | 0.00 | 0.24 | 0.24 | 83 | 1006.7 | |
| 20260506182116 | 65 | 0.0 | 0.0 | 0.00 | 0.24 | 0.24 | 83 | 1006.6 | |
| 20260506181116 | 65 | 113 | 0.9 | 0.9 | 0.00 | 0.24 | 0.24 | 83 | 1006.6 |
| 20260506180116 | 65 | 0.0 | 0.0 | 0.00 | 0.24 | 0.24 | 84 | 1006.6 | |
| 20260506175136 | 64 | 0.0 | 0.9 | 0.00 | 0.24 | 0.24 | 84 | 1006.7 | |
| 20260506174136 | 64 | 135 | 0.9 | 1.7 | 0.00 | 0.24 | 0.24 | 83 | 1006.6 |
| 20260506173135 | 65 | 158 | 1.7 | 3.5 | 0.00 | 0.24 | 0.24 | 83 | 1006.6 |
| 20260506172136 | 64 | 0.0 | 0.0 | 0.00 | 0.24 | 0.24 | 85 | 1006.7 | |
| 20260506171136 | 63 | 0.0 | 0.9 | 0.00 | 0.24 | 0.24 | 85 | 1006.7 | |
| 20260506170116 | 63 | 0.0 | 0.0 | 0.00 | 0.24 | 0.24 | 86 | 1006.8 | |
| 20260506165136 | 63 | 0.0 | 0.9 | 0.00 | 0.24 | 0.24 | 86 | 1006.8 | |
| 20260506164116 | 63 | 0.0 | 0.0 | 0.00 | 0.24 | 0.24 | 86 | 1006.7 | |
| 20260506163136 | 63 | 180 | 1.7 | 4.3 | 0.00 | 0.24 | 0.24 | 86 | 1006.7 |
| 20260506162116 | 63 | 338 | 0.9 | 0.9 | 0.00 | 0.24 | 0.24 | 86 | 1006.7 |
| 20260506161115 | 63 | 225 | 2.6 | 3.5 | 0.00 | 0.24 | 0.24 | 86 | 1006.4 |
| 20260506160116 | 63 | 225 | 2.6 | 7.0 | 0.00 | 0.24 | 0.24 | 86 | 1006.5 |
| 20260506155116 | 63 | 203 | 0.9 | 1.7 | 0.00 | 0.24 | 0.24 | 88 | 1006.4 |
| 20260506154116 | 62 | 135 | 1.7 | 3.5 | 0.03 | 0.24 | 0.24 | 88 | 1006.6 |
| 20260506153116 | 61 | 248 | 1.7 | 3.5 | 0.05 | 0.24 | 0.24 | 88 | 1006.7 |
| 20260506152116 | 61 | 0.0 | 0.0 | 0.08 | 0.24 | 0.24 | 89 | 1006.8 | |
| 20260506151116 | 61 | 248 | 1.7 | 2.6 | 0.10 | 0.24 | 0.24 | 89 | 1006.1 |
| 20260506150116 | 61 | 225 | 1.7 | 4.3 | 0.13 | 0.24 | 0.24 | 90 | 1006.2 |
| 20260506145116 | 60 | 158 | 0.9 | 0.9 | 0.16 | 0.24 | 0.24 | 90 | 1006.5 |
| 20260506144116 | 60 | 225 | 1.7 | 2.6 | 0.13 | 0.21 | 0.21 | 89 | 1006.8 |
| 20260506143116 | 60 | 0.0 | 0.9 | 0.11 | 0.19 | 0.19 | 89 | 1007.1 | |
| 20260506142116 | 60 | 248 | 1.7 | 2.6 | 0.10 | 0.16 | 0.16 | 89 | 1007.3 |
| 20260506141116 | 60 | 248 | 0.9 | 1.7 | 0.09 | 0.14 | 0.14 | 88 | 1007.4 |
| 20260506140116 | 60 | 0.0 | 0.9 | 0.06 | 0.11 | 0.11 | 88 | 1007.3 | |
| 20260506135116 | 61 | 248 | 0.9 | 1.7 | 0.04 | 0.08 | 0.08 | 87 | 1007.2 |
| 20260506134116 | 61 | 203 | 2.6 | 5.2 | 0.04 | 0.08 | 0.08 | 87 | 1006.9 |
| 20260506133116 | 60 | 158 | 1.7 | 4.3 | 0.04 | 0.08 | 0.08 | 88 | 1006.9 |
| 20260506132116 | 60 | 225 | 1.7 | 2.6 | 0.02 | 0.06 | 0.06 | 87 | 1006.9 |
| 20260506131116 | 60 | 270 | 1.7 | 2.6 | 0.01 | 0.05 | 0.05 | 86 | 1006.9 |
| 20260506130156 | 60 | 225 | 0.9 | 1.7 | 0.02 | 0.05 | 0.05 | 85 | 1007.1 |
| 20260506125116 | 61 | 225 | 0.9 | 1.7 | 0.01 | 0.04 | 0.04 | 85 | 1007.0 |
| 20260506124116 | 61 | 0.0 | 1.7 | 0.02 | 0.04 | 0.04 | 84 | 1007.1 | |
| 20260506123116 | 61 | 135 | 0.9 | 2.6 | 0.03 | 0.04 | 0.04 | 84 | 1007.2 |
| 20260506122116 | 61 | 248 | 0.9 | 0.9 | 0.03 | 0.04 | 0.04 | 83 | 1007.4 |
| 20260506121116 | 61 | 158 | 0.9 | 1.7 | 0.04 | 0.04 | 0.04 | 83 | 1007.3 |
| 20260506120116 | 61 | 0.0 | 0.9 | 0.03 | 0.03 | 0.03 | 82 | 1007.4 | |
| 20260506115116 | 61 | 0.0 | 0.9 | 0.03 | 0.03 | 0.03 | 80 | 1007.5 | |
| 20260506114136 | 62 | 135 | 0.9 | 2.6 | 0.02 | 0.02 | 0.02 | 79 | 1007.5 |
| 20260506113116 | 62 | 203 | 0.9 | 1.7 | 0.01 | 0.01 | 0.01 | 77 | 1007.5 |
| 20260506112116 | 63 | 203 | 1.7 | 3.5 | 0.01 | 0.01 | 0.01 | 74 | 1007.1 |